Location: Aufkirchen
(47.9603°N, 11.3653°E)
Time: 13:17:20
(UTC+01:00)

Transit 2A Rocket - Pass Details

Date: 12 December 2020
Orbit: 592 x 910 km, 66.7° (Epoch: 21 January)

Event Time Altitude Azimuth Distance (km) Brightness Sun altitude
Rises 09:03:37 0° 310° (NW) 3,037 7.4 7.7°
Reaches altitude 10° 09:07:07 10° 284° (WNW) 2,051 6.8 8.1°
Maximum altitude 09:09:17 13° 256° (WSW) 1,800 6.7 8.4°
Drops below altitude 10° 09:11:24 10° 227° (SW) 1,979 7.2 8.6°
Sets 09:14:40 0° 200° (SSW) 2,840 8.4 9.0°
